Wind_Speed
18 18 17 16 16 17 18 18 19 22 27 30 32 34 36 37 38 38 38 40 42 42 42 42 42 42 42 43 43 42 41 39 38 36 35 35 35 34 34 34 34 35 34 34 33 32 32 32 31 29 27 25 24 23 23 23 23 22 21 20 19 18 18
16 16 17 16 16 17 18 18 19 23 27 30 32 35 36 37 38 39 39 41 43 43 44 44 43 42 43 43 42 41 41 40 39 38 36 35 34 34 34 35 35 35 36 36 35 33 31 31 31 30 28 27 25 24 24 24 23 23 22 21 20 20 19
15 15 16 17 17 18 18 18 20 24 28 30 32 35 37 39 41 42 41 41 43 43 43 44 44 43 44 43 41 41 41 40 39 39 37 37 36 35 34 34 34 34 35 36 35 34 32 31 31 30 29 28 27 26 25 24 24 24 23 23 22 22 22
17 17 17 18 19 19 18 17 18 23 28 31 35 37 39 41 42 42 42 42 43 42 42 44 44 44 44 43 41 41 40 40 40 39 39 38 37 35 34 34 34 34 33 34 35 35 33 32 31 31 30 29 28 27 26 26 25 25 24 24 24 24 24
19 19 17 17 17 16 16 15 17 23 28 32 35 37 39 40 40 40 40 41 42 43 43 43 43 42 42 42 41 40 40 40 40 39 39 38 36 35 34 35 35 34 34 34 35 35 34 33 32 31 31 30 30 29 28 27 27 27 26 26 26 26 26
19 18 17 16 16 16 17 17 20 26 30 32 35 37 37 38 38 38 39 39 40 41 41 41 41 41 41 40 40 39 38 39 39 39 38 37 36 35 35 36 35 35 36 35 35 35 34 34 33 32 31 32 32 31 30 29 28 28 28 28 28 27 27
17 17 17 17 17 18 19 18 20 26 30 32 33 33 33 35 36 37 37 37 38 38 38 39 40 40 40 39 39 39 38 38 38 38 37 36 36 36 36 36 35 36 36 35 35 35 35 35 34 33 32 32 32 32 32 31 30 30 30 30 30 29 28
19 18 18 19 18 19 19 17 18 23 27 28 28 29 32 34 35 36 36 37 37 37 37 38 39 40 39 39 39 39 39 38 38 38 37 36 36 36 36 35 35 35 34 34 34 35 35 36 35 35 34 33 33 33 33 33 32 32 31 31 31 30 30
19 19 20 20 19 18 17 16 17 21 25 26 28 30 32 34 34 35 37 37 37 37 38 39 39 40 39 38 38 39 39 38 38 38 38 37 36 36 36 36 35 34 33 34 34 34 35 36 36 36 35 35 34 34 34 34 34 33 33 32 32 31 31
18 19 19 19 18 17 15 15 16 17 18 22 26 28 31 32 33 35 36 36 36 37 39 39 39 39 38 38 38 38 38 38 38 38 38 37 37 37 37 36 35 34 34 34 34 33 35 35 35 36 36 35 36 36 36 36 35 35 34 34 33 32 33
16 18 18 18 17 15 15 15 16 15 15 20 25 28 30 32 33 34 35 36 37 38 39 39 38 38 38 38 38 37 37 38 37 37 37 37 37 37 37 36 35 34 35 35 34 34 34 34 35 35 36 36 37 37 38 37 37 36 36 35 35 34 34
15 16 16 17 17 16 16 16 17 17 16 20 25 27 29 31 32 33 34 36 38 37 37 38 38 38 38 37 37 36 36 37 37 37 37 37 37 37 37 36 35 35 35 36 36 36 35 34 35 35 36 38 38 39 39 38 38 37 37 37 36 35 35
14 14 15 16 16 16 17 17 18 19 17 20 25 28 30 31 32 33 34 35 37 37 37 38 38 38 38 38 37 37 37 39 39 39 38 38 38 38 37 37 36 37 37 37 37 36 36 35 35 36 37 38 39 39 39 38 38 38 38 37 36 36 36
15 15 15 15 15 16 17 18 18 18 17 19 24 28 29 30 32 32 33 34 35 36 36 37 38 38 38 38 37 38 39 40 40 40 39 39 39 38 37 37 37 37 37 37 37 37 37 37 36 36 37 38 39 39 39 38 38 39 38 38 37 36 37
16 16 15 15 16 17 18 18 18 17 17 18 22 25 27 28 30 30 31 32 34 35 36 37 37 38 38 37 37 38 39 39 39 39 39 39 38 38 38 37 37 37 37 37 37 38 38 38 37 36 37 38 39 39 39 38 39 40 40 39 38 37 38
15 15 16 17 17 18 18 19 19 18 18 17 19 24 25 26 29 31 32 33 34 35 36 36 36 36 36 36 37 38 38 38 38 38 38 38 38 39 38 37 36 36 37 37 38 38 38 38 37 37 37 38 38 39 39 39 40 41 41 41 40 39 38
15 16 17 18 18 18 18 18 17 16 17 17 20 24 26 27 30 31 31 32 34 35 36 36 36 35 35 35 36 36 36 36 36 36 36 37 38 38 38 37 37 37 37 37 38 38 38 37 37 38 39 38 38 39 39 40 41 42 43 43 42 41 39
16 16 16 17 17 17 17 16 15 16 17 17 21 26 28 28 29 29 31 33 34 34 34 34 34 34 34 34 35 35 35 35 35 35 35 36 37 37 37 37 37 37 37 37 38 38 37 37 38 39 39 38 39 39 40 41 42 42 43 43 43 43 41
15 16 16 17 17 17 17 15 16 18 18 19 24 29 31 31 31 32 34 34 33 32 32 32 32 32 33 34 36 35 35 35 35 35 36 36 37 37 37 37 37 37 38 38 37 37 37 38 38 39 39 38 39 40 40 41 42 42 43 43 44 44 43
11 12 12 12 13 13 14 13 13 15 18 22 26 29 30 31 31 31 31 30 30 31 31 31 31 32 33 35 36 35 36 36 36 36 37 37 37 37 37 37 38 38 39 38 37 37 38 38 38 39 39 39 40 40 40 41 42 42 42 43 44 43 42
6 9 9 9 10 10 10 10 10 11 15 21 24 24 25 27 27 26 26 28 30 31 31 31 32 33 34 35 35 35 36 36 36 36 36 37 37 37 37 37 38 38 39 38 38 39 40 39 39 39 40 40 40 40 40 42 42 41 42 43 43 42 41
6 9 8 8 10 10 9 11 12 13 15 19 22 23 23 25 25 25 26 28 29 30 31 31 31 33 33 34 34 35 36 36 36 36 36 37 37 36 37 37 38 39 39 38 39 40 39 39 40 40 41 41 40 39 40 42 41 41 41 42 41 40 40
8 10 10 10 11 12 14 17 18 19 20 20 20 22 24 24 25 25 25 26 27 28 29 29 30 32 33 33 34 35 36 37 37 37 37 37 36 36 37 38 39 39 39 38 38 38 38 39 40 40 40 40 39 40 41 41 40 40 40 40 38 38 38
10 10 11 11 13 15 18 21 22 22 24 22 17 18 23 26 26 25 23 23 24 25 25 26 28 30 32 33 35 36 37 38 38 38 38 37 37 37 38 38 39 40 40 39 39 39 39 39 38 39 39 40 41 41 41 40 40 39 39 38 37 36 36
11 11 10 13 16 17 19 24 25 25 25 23 17 14 20 26 28 26 24 24 24 24 24 25 28 30 32 34 36 38 39 39 39 39 38 38 38 38 39 40 40 40 40 39 39 39 38 37 36 37 38 39 40 40 39 39 39 38 38 38 37 36 36
10 10 9 12 16 19 22 25 25 24 22 20 17 17 19 21 22 20 18 20 22 22 23 25 28 30 32 33 35 37 38 38 39 39 38 38 39 39 40 40 40 39 38 37 37 37 35 35 35 35 37 37 37 37 38 38 37 37 37 37 37 37 36
10 11 11 12 14 19 23 24 25 23 21 20 21 21 22 23 20 16 13 12 10 8 9 13 19 24 27 29 31 34 36 37 38 39 39 39 40 39 39 39 38 38 37 36 35 34 34 34 34 34 35 35 35 35 36 36 36 37 37 36 36 36 36
11 12 13 13 15 18 20 21 22 23 22 23 25 23 22 24 22 17 15 14 10 7 4 2 5 11 19 26 30 32 34 36 36 37 38 39 38 37 36 37 37 37 36 35 33 32 32 32 32 32 32 32 32 33 33 34 34 35 36 36 36 36 36
10 9 10 12 13 16 19 18 19 21 22 24 25 23 22 22 20 17 15 13 11 9 7 5 3 2 8 19 28 32 33 35 37 37 37 38 38 37 36 36 35 35 34 33 31 30 30 30 30 29 28 28 29 30 31 32 33 33 34 35 35 35 36
10 9 9 10 12 16 19 18 18 20 22 23 24 22 20 20 18 16 15 12 10 9 7 6 5 5 4 10 21 29 33 35 36 37 37 38 38 37 35 33 32 32 32 31 30 28 27 27 28 27 26 25 26 27 29 31 31 32 33 33 33 33 34
10 10 11 12 14 17 19 18 18 20 20 21 22 21 19 18 18 16 13 11 10 8 8 7 7 7 7 6 12 23 29 31 33 36 37 37 37 36 34 32 29 28 28 29 28 27 25 25 25 25 24 24 24 24 26 27 28 30 31 31 31 32 32
10 12 12 13 14 16 18 18 18 18 18 19 20 21 20 18 17 15 12 10 9 8 8 9 9 9 10 9 8 15 22 26 29 31 33 34 34 34 34 33 30 28 27 27 27 26 25 24 24 24 23 23 22 23 24 24 25 27 28 28 28 29 30
9 10 11 12 12 14 16 15 14 14 14 15 18 20 20 18 17 15 12 10 9 7 7 9 9 9 11 11 8 11 17 23 26 27 28 28 29 30 30 30 29 27 26 25 24 23 22 22 22 21 21 21 21 22 23 24 25 25 25 25 25 26 27
8 9 11 13 14 14 14 13 12 13 13 13 15 19 19 18 17 15 13 12 10 8 7 8 7 7 9 10 7 8 15 19 21 23 23 22 23 23 22 23 24 24 24 25 24 23 22 22 22 22 22 22 22 22 22 23 24 24 24 24 23 23 24
7 9 11 13 13 14 14 13 13 13 13 12 15 19 20 19 18 17 15 13 12 10 9 7 6 5 6 7 5 6 12 15 16 18 20 20 19 17 15 14 17 18 19 21 22 22 22 22 23 24 25 24 23 22 21 21 22 23 23 22 21 20 21
6 8 11 12 13 14 14 13 14 15 14 14 17 20 21 19 18 17 17 15 13 12 10 8 6 5 5 5 2 4 9 12 14 18 20 21 21 18 14 10 10 12 14 15 16 17 19 19 21 23 23 22 21 20 20 21 21 21 20 18 17 16 16
7 7 10 11 12 12 13 13 15 16 15 16 18 20 20 20 18 17 16 14 13 12 11 9 7 7 6 5 3 3 9 13 16 19 20 20 20 20 18 15 12 9 7 8 9 11 12 14 16 17 18 19 19 17 16 16 16 15 15 14 13 13 12
10 8 11 12 11 11 11 11 13 13 13 15 17 19 19 20 19 17 15 13 12 12 12 11 10 10 8 6 4 3 8 14 17 19 20 20 20 20 20 20 20 18 15 10 5 5 6 8 11 12 12 13 14 13 12 12 12 13 14 13 12 11 11
Wind_Direction
192 193 193 195 195 195 196 193 189 189 190 190 189 189 189 191 192 192 193 193 194 195 196 197 198 199 200 203 205 206 207 207 208 210 212 213 215 215 215 216 217 219 220 220 222 222 222 221 220 223 226 230 234 235 234 233 234 236 237 237 237 240 242
194 196 194 194 194 196 198 193 189 189 190 190 189 189 190 191 191 192 193 194 195 196 196 197 198 199 201 203 204 206 206 207 208 210 212 214 216 217 217 218 219 220 221 222 224 224 223 222 222 223 227 230 233 236 235 233 234 237 238 238 238 239 241
198 199 194 195 194 195 196 191 190 191 189 189 188 189 191 192 192 193 193 194 195 196 196 197 198 199 201 203 204 205 206 207 208 209 211 213 216 218 219 220 221 221 222 222 224 225 225 224 224 225 228 231 234 236 236 234 233 236 238 240 240 240 240
199 199 196 197 196 194 194 192 189 190 190 190 190 191 192 193 194 194 194 194 194 195 195 196 198 199 201 201 203 205 206 207 208 209 211 214 216 217 218 219 221 221 222 223 224 225 226 227 226 226 229 233 235 236 237 235 234 235 237 240 242 242 242
197 197 196 197 197 195 193 192 190 189 191 192 191 192 193 193 194 194 196 196 196 196 197 197 197 199 201 201 202 205 206 207 209 210 212 213 215 215 216 218 220 221 222 223 224 224 226 227 227 228 230 233 236 236 236 236 235 235 236 238 241 243 244
194 193 194 195 195 194 194 194 193 190 191 191 191 192 191 191 193 194 196 197 197 198 198 197 198 199 201 202 203 205 206 208 209 211 212 213 213 214 216 218 219 220 222 223 223 224 225 227 229 230 231 233 235 235 235 236 236 237 237 237 240 242 244
193 191 193 194 192 193 195 195 192 190 191 191 191 190 189 190 192 194 196 197 198 198 197 198 198 199 201 202 203 205 206 207 209 211 212 213 213 214 216 218 219 220 221 221 222 223 224 227 230 231 232 232 233 234 235 237 237 238 237 237 238 241 243
194 192 193 194 193 193 193 192 188 188 189 188 187 186 187 189 191 193 195 196 198 198 197 198 199 199 201 201 202 204 205 207 209 211 212 213 214 215 216 217 219 220 220 220 222 223 224 226 229 231 231 231 233 235 236 238 239 238 237 236 236 238 241
195 194 194 193 192 191 190 187 184 184 185 185 185 186 187 188 190 192 194 195 196 197 199 200 199 200 201 201 203 205 206 207 208 210 211 212 214 216 217 218 219 219 219 220 222 224 225 227 229 230 230 231 233 235 236 237 239 238 237 236 236 236 238
194 194 196 194 190 188 185 181 179 181 184 184 186 187 186 187 190 192 193 194 195 197 199 199 200 200 200 201 203 204 205 206 208 209 210 212 214 216 218 218 219 219 220 221 222 224 226 227 229 229 229 230 232 234 236 236 237 238 237 237 237 237 237
192 193 194 191 187 182 177 174 176 181 184 185 187 188 187 188 190 191 192 193 195 197 198 198 199 199 199 201 202 203 204 206 207 208 210 211 214 216 218 219 219 219 221 222 223 224 226 226 227 228 228 230 232 234 235 235 236 236 237 237 238 238 239
191 191 190 188 182 177 175 174 179 184 184 185 187 187 188 189 190 191 192 194 195 196 197 197 198 199 199 200 201 202 204 205 207 209 210 212 214 216 218 218 219 220 221 222 223 223 224 225 225 226 228 230 232 234 234 235 235 235 236 236 237 237 238
187 187 187 185 179 175 175 176 181 184 183 185 187 187 189 190 190 191 192 194 195 196 195 196 197 198 199 200 200 201 203 205 207 209 210 212 214 216 218 218 219 220 220 221 222 223 223 224 225 226 228 231 232 233 235 235 235 235 236 235 235 236 237
182 185 183 180 176 175 176 179 182 183 182 184 186 188 190 191 191 192 192 194 194 195 195 195 196 197 199 200 201 202 204 206 208 209 210 212 214 216 218 218 219 220 221 222 222 223 224 224 225 226 228 230 232 234 235 234 235 236 236 236 235 235 236
182 182 176 175 177 177 178 180 181 181 183 183 183 185 188 189 191 192 193 194 195 195 196 195 195 197 198 199 201 204 205 206 207 209 211 211 213 215 217 218 220 221 222 223 223 224 225 225 226 227 228 230 232 234 235 234 235 236 236 236 235 235 236
181 179 175 177 180 180 181 182 182 181 180 180 181 183 184 187 189 191 193 194 195 196 196 195 196 197 198 199 203 205 206 207 207 209 210 211 213 214 216 217 219 221 222 223 224 225 225 226 226 227 229 231 232 233 234 235 236 237 237 237 236 236 236
182 178 178 179 179 181 183 182 180 178 178 180 182 182 183 186 189 192 194 195 195 196 195 194 195 197 198 200 204 205 206 207 208 208 209 211 213 214 215 216 217 220 222 223 224 225 226 226 226 227 229 231 233 234 234 235 237 238 238 239 238 237 236
183 179 179 180 180 181 181 177 174 176 180 183 182 183 186 187 188 191 195 196 196 196 194 194 195 196 198 201 204 205 205 206 207 208 210 212 213 214 215 215 216 219 221 222 224 225 226 226 226 228 230 231 233 235 236 237 238 239 239 240 240 239 237
182 181 180 179 178 177 176 174 176 180 182 182 183 186 189 187 187 193 197 197 195 194 193 193 194 195 197 201 204 205 205 205 206 208 210 212 213 214 215 215 216 218 220 222 223 224 226 227 227 229 230 231 233 235 237 239 240 240 241 241 241 241 239
176 175 172 171 171 172 173 173 175 178 179 182 186 188 189 189 192 196 196 194 193 193 193 193 193 195 198 202 205 204 205 205 205 207 209 211 212 213 214 214 216 217 219 221 222 223 225 227 228 230 231 232 233 235 237 239 241 241 242 242 243 243 241
137 139 141 145 145 149 154 156 159 166 174 181 183 185 186 190 194 194 193 194 194 194 194 192 193 196 200 203 204 204 204 205 206 207 209 211 211 212 213 214 216 217 219 219 221 222 224 226 227 230 231 233 233 235 237 239 240 242 242 243 244 244 243
94 111 121 127 131 136 138 139 144 151 160 169 173 177 183 187 188 189 191 194 195 195 194 194 194 198 201 203 204 205 205 205 206 207 209 210 210 211 213 214 216 218 218 219 220 223 224 225 227 229 231 233 233 234 237 239 240 241 242 244 244 243 243
74 93 101 105 109 113 116 122 129 136 143 152 163 175 183 184 185 188 191 193 195 195 194 195 197 199 202 203 204 205 206 206 206 208 209 209 209 211 213 215 217 218 218 218 220 221 223 224 226 228 231 232 233 233 236 238 240 240 241 243 243 242 241
58 77 91 100 104 103 104 109 115 123 128 130 140 166 181 185 185 187 189 192 194 195 196 197 199 201 203 205 206 207 207 207 207 208 209 209 210 211 213 215 217 219 219 218 219 221 223 224 226 228 230 232 233 233 235 238 239 240 240 241 242 241 240
48 57 70 85 97 102 105 106 105 105 107 106 106 131 165 180 186 186 190 195 196 198 201 203 204 205 205 207 208 209 208 208 209 209 210 210 211 213 214 215 218 219 219 219 219 221 223 223 225 228 230 232 234 235 236 238 239 240 240 240 240 240 239
43 47 55 71 88 99 101 100 97 93 91 94 97 106 128 152 164 168 179 190 195 200 206 210 211 212 211 210 210 210 210 210 209 210 211 211 213 215 216 216 218 219 219 219 220 222 223 223 224 227 230 232 234 235 236 237 239 240 240 240 239 239 239
37 42 48 61 80 91 92 90 90 90 87 88 92 98 107 115 116 113 121 137 152 176 200 210 215 217 218 216 213 212 212 212 211 211 213 214 215 216 217 217 218 218 218 218 219 220 222 223 224 226 230 232 233 234 236 236 237 239 240 240 239 239 238
31 34 42 55 71 85 89 88 87 87 83 81 83 89 98 100 94 88 88 84 70 57 71 141 204 218 220 218 216 214 213 213 214 213 214 216 216 216 217 218 218 218 218 218 218 218 220 222 224 225 229 232 233 234 236 237 237 238 239 240 240 239 238
29 28 37 48 62 76 84 85 83 80 78 78 78 80 87 90 85 79 74 60 42 38 44 39 18 292 230 219 217 216 214 213 214 214 214 216 217 217 217 218 217 218 218 217 217 217 219 221 223 224 227 230 232 233 235 237 238 238 239 240 240 239 239
28 28 38 47 57 69 76 78 77 75 74 74 75 74 76 80 80 73 62 48 37 35 34 22 5 346 302 232 217 216 214 213 213 213 213 215 216 217 218 218 216 215 216 216 216 216 217 220 221 222 225 228 230 231 233 235 238 239 241 243 242 241 241
24 24 32 41 50 62 71 74 75 73 69 67 70 71 69 70 72 64 51 41 34 27 18 10 0 345 330 287 228 217 214 212 211 211 212 213 213 215 217 218 216 214 214 214 214 214 216 218 219 220 222 225 227 229 230 232 235 238 241 243 243 244 244
22 23 26 32 42 54 64 70 70 68 64 60 63 67 65 64 64 58 47 38 32 22 7 360 356 343 332 317 266 228 216 211 210 209 210 211 211 212 215 216 215 214 213 211 212 213 214 215 217 218 221 223 225 227 228 230 233 236 239 240 241 242 243
18 19 20 25 39 53 62 67 66 64 64 61 61 64 65 62 59 55 47 39 32 19 6 0 356 344 333 324 294 242 220 212 209 206 206 207 207 209 213 214 214 214 212 210 210 211 212 214 214 214 215 218 221 223 226 230 231 232 234 235 236 239 240
11 14 20 27 39 52 60 63 65 67 66 62 62 64 62 59 56 51 46 41 34 25 17 10 2 348 336 327 302 243 222 214 208 201 196 196 198 200 205 209 211 212 213 213 212 210 210 210 211 212 214 216 217 219 221 226 229 230 231 233 235 238 239
13 17 21 27 38 49 57 63 66 67 64 59 60 62 58 54 50 45 42 40 34 29 28 21 11 5 349 334 306 236 216 209 199 189 181 176 176 176 181 193 202 206 210 215 216 215 215 214 214 218 220 218 217 216 216 220 228 231 233 234 235 236 239
18 24 25 31 42 49 55 64 68 65 60 55 56 58 55 50 46 41 39 39 35 31 30 25 17 21 17 3 335 220 205 191 179 174 170 166 162 154 143 146 173 191 200 209 214 216 219 221 223 226 227 223 218 217 219 226 233 233 230 228 225 224 225
4 26 29 31 42 46 46 55 62 61 57 55 56 57 54 50 46 40 36 39 41 35 31 29 28 31 34 34 38 190 186 172 164 164 162 159 156 148 135 119 110 120 155 189 207 214 220 225 229 231 231 226 220 217 219 227 230 222 209 202 199 196 193
4 33 40 37 44 49 46 51 60 62 60 60 60 60 56 52 48 42 38 42 48 42 37 37 38 34 31 35 53 131 165 162 158 156 153 149 147 144 137 123 104 90 86 96 128 173 195 212 220 221 220 219 219 217 207 194 185 180 174 169 167 166 164
Height
696 699 702 705 708 710 711 712 716 720 724 728 732 737 742 746 750 753 756 759 762 766 769 773 777 780 783 786 789 792 795 798 802 804 807 809 810 812 814 816 818 819 821 822 823 825 827 829 831 833 834 836 837 838 840 841 842 843 844 846 847 847 848
696 697 698 701 704 706 707 709 713 716 720 724 728 733 737 741 745 748 752 755 758 761 765 769 773 776 780 783 786 789 793 796 798 802 804 806 809 810 812 814 815 817 819 820 822 824 826 828 829 831 833 834 835 837 838 839 840 841 842 844 845 846 847
694 695 695 697 698 701 703 706 709 711 715 720 724 728 731 735 739 743 747 751 754 758 762 765 769 773 776 780 784 787 790 793 795 798 801 803 806 808 810 812 814 816 817 819 821 823 824 826 828 830 831 833 834 835 836 837 838 839 840 842 843 844 845
689 689 690 692 692 694 698 700 704 707 712 715 718 722 726 731 735 739 744 747 751 755 758 762 765 769 773 776 780 784 787 790 793 795 798 800 803 806 808 810 812 814 816 817 819 821 823 825 826 828 830 831 832 833 834 835 836 838 839 840 841 841 842
683 684 687 689 690 693 696 698 701 703 708 711 715 719 723 728 734 738 742 745 749 752 755 759 763 767 771 773 777 781 784 787 790 793 795 798 801 804 806 808 810 812 814 815 817 819 821 823 824 826 828 829 830 831 832 833 834 836 837 838 838 839 840
677 680 683 685 687 690 692 693 695 698 703 707 711 716 720 726 732 736 740 744 748 751 754 759 762 765 768 771 775 778 781 785 788 791 793 796 798 801 802 805 807 809 811 813 815 817 819 820 822 823 825 826 828 829 830 831 832 833 834 835 836 837 838
671 674 676 678 681 684 685 687 691 695 700 704 709 715 720 725 729 733 738 742 745 749 753 757 759 762 766 769 772 776 779 782 785 788 791 793 796 798 800 802 804 806 809 811 813 815 817 818 819 821 822 824 825 826 827 828 829 831 832 833 834 835 837
664 666 669 672 673 676 680 683 688 693 699 704 709 714 717 721 726 730 734 738 742 747 750 753 756 760 763 766 770 773 776 779 782 785 789 791 794 795 797 799 801 804 806 808 810 812 814 815 817 818 820 821 822 824 825 826 827 828 829 831 832 833 834
657 659 662 664 667 671 675 679 684 690 695 701 705 709 712 717 721 726 730 734 739 743 746 750 753 757 760 764 767 770 773 776 779 782 785 788 791 792 794 797 799 801 804 806 808 810 811 813 814 816 817 819 820 821 822 823 824 826 827 828 829 830 832
653 656 657 659 663 667 671 677 682 688 693 697 701 705 709 713 717 722 726 731 735 739 742 747 750 754 758 761 764 767 771 773 776 779 782 785 787 789 792 794 797 799 801 803 805 807 808 810 812 814 815 816 817 818 819 820 821 823 824 825 827 828 829
649 652 654 658 662 666 671 676 681 685 688 692 696 701 705 709 714 718 722 726 730 734 739 743 747 751 755 757 761 764 767 770 773 776 778 781 784 786 789 792 794 796 798 800 802 804 805 807 809 811 812 813 814 815 816 817 819 820 821 822 824 825 826
647 649 653 657 661 665 670 673 677 680 683 687 692 697 701 706 710 714 719 723 727 731 736 740 744 748 751 754 758 761 764 767 769 772 775 778 781 783 786 789 791 793 795 797 799 800 802 804 806 807 808 809 811 812 813 814 816 817 818 819 821 822 823
643 646 650 653 657 662 666 670 673 676 679 683 688 693 697 701 706 711 715 719 723 728 732 736 740 744 747 751 754 757 760 762 765 768 771 774 777 780 783 786 788 790 791 793 795 797 799 800 802 804 805 806 808 809 810 812 813 814 815 816 818 819 820
640 643 647 651 655 660 663 667 670 673 677 680 685 690 694 699 703 707 711 716 720 725 728 732 736 740 743 746 749 752 754 757 761 764 767 770 773 776 779 782 785 787 789 791 792 793 795 796 798 800 802 803 804 806 807 809 810 810 812 813 815 816 817
639 643 647 651 655 657 660 664 667 670 674 677 682 688 692 697 701 705 710 713 717 721 724 728 732 735 739 742 745 747 750 754 757 760 764 767 769 772 775 778 781 784 786 788 789 790 791 793 795 797 798 799 801 802 804 805 806 806 808 810 811 812 813
638 641 645 648 651 653 656 659 662 666 670 675 680 685 689 694 697 701 705 709 713 717 721 725 729 732 735 738 741 744 748 751 754 757 760 763 766 768 771 775 778 781 783 784 786 787 788 790 792 793 794 795 797 799 800 801 801 802 804 806 807 809 810
636 639 642 643 646 649 652 656 660 665 669 673 676 681 685 689 693 697 702 705 709 713 717 722 725 728 732 735 738 742 745 748 751 754 757 760 762 765 768 771 774 776 779 781 782 784 785 787 788 789 790 791 793 794 795 796 797 798 800 802 803 805 807
634 637 639 641 644 647 651 656 660 664 667 670 673 678 681 685 690 695 698 702 706 710 715 719 722 726 730 732 736 739 742 745 749 752 754 757 759 762 764 767 770 772 775 777 778 781 782 783 784 784 786 788 789 790 791 791 793 795 796 798 800 802 803
630 633 635 638 641 645 649 653 655 658 662 665 670 674 677 681 686 690 693 698 703 708 713 716 719 723 727 729 732 735 738 742 745 748 751 753 756 759 761 763 765 768 770 772 775 777 778 779 780 780 782 784 784 785 786 787 789 791 793 794 796 798 800
630 631 634 637 640 643 646 649 652 656 659 663 667 671 676 680 684 687 692 698 703 706 710 713 717 720 723 725 728 731 735 738 741 743 746 749 752 755 757 759 761 763 766 768 771 773 773 774 775 776 777 779 780 781 782 783 785 787 789 791 792 795 797
632 633 636 638 641 644 647 650 653 657 660 664 668 673 677 681 684 689 694 698 701 704 707 710 713 716 718 721 724 727 731 734 736 739 742 745 748 750 752 754 756 758 761 763 765 766 767 769 770 771 772 774 775 777 778 779 781 783 785 787 789 792 794
636 635 637 638 640 644 646 649 653 656 660 664 668 672 676 680 684 689 692 695 698 701 704 707 710 712 715 717 720 724 727 729 732 735 737 740 743 745 747 750 751 754 756 758 760 761 762 764 765 766 767 769 771 773 773 774 777 779 781 783 786 788 791
639 638 638 639 641 643 646 649 653 656 660 664 668 672 675 679 683 687 690 694 696 699 701 704 706 708 711 714 716 719 722 725 728 730 732 735 738 740 742 745 746 749 751 753 755 756 757 758 759 760 762 764 766 767 767 769 772 775 777 779 782 785 786
642 641 641 641 642 645 648 651 654 657 661 664 668 671 674 677 682 685 689 692 694 697 699 701 703 705 707 710 712 715 718 720 723 725 727 730 732 735 737 739 741 743 745 747 749 750 751 753 754 756 758 759 760 761 763 765 768 771 773 775 778 780 782
647 646 646 645 645 647 650 653 656 659 661 665 669 671 672 675 679 683 686 689 691 694 696 697 700 702 704 706 708 710 713 715 718 720 722 725 727 730 732 734 736 738 740 742 744 745 747 749 751 752 753 754 756 758 760 762 764 767 769 771 773 775 777
654 653 651 650 650 651 652 654 656 660 663 667 669 671 672 674 678 681 684 687 689 691 692 694 696 698 700 703 705 707 709 711 713 716 718 721 723 725 727 729 731 734 736 738 740 742 743 745 747 747 749 750 752 754 756 758 760 763 764 766 769 771 773
658 657 656 656 655 654 655 656 658 662 666 668 669 670 672 674 677 681 684 686 689 690 691 693 694 696 698 700 702 704 706 708 710 712 714 717 718 721 723 725 727 730 732 734 736 738 739 741 742 744 745 747 749 751 753 754 756 758 760 762 764 766 768
663 662 660 660 659 658 658 659 661 664 666 668 669 670 672 674 677 681 684 686 688 690 690 691 693 694 695 697 698 700 702 704 707 709 711 713 715 717 719 721 724 726 727 730 732 734 735 737 739 741 742 744 746 748 749 751 753 754 756 758 760 762 764
668 668 666 665 664 663 661 661 663 665 667 669 670 672 673 675 678 681 684 685 687 688 689 690 691 691 692 693 694 696 698 700 703 705 708 710 711 713 715 717 719 722 724 726 728 730 732 734 736 738 739 741 743 745 746 748 749 751 752 754 756 758 759
672 671 670 668 667 665 663 662 664 666 668 670 672 674 676 677 678 681 683 685 687 687 688 689 690 690 690 690 691 692 694 696 698 701 703 705 707 710 711 713 716 718 720 723 725 727 729 730 733 735 736 738 740 741 743 745 746 748 749 750 752 754 755
674 673 672 671 669 668 666 666 667 669 671 674 675 676 677 678 679 681 682 684 685 686 687 687 688 688 688 688 688 689 690 692 694 696 698 700 703 706 708 710 713 715 717 720 721 723 725 727 730 732 733 735 737 738 740 742 743 745 745 747 749 750 751
677 676 675 673 672 671 670 670 671 673 675 676 677 677 678 679 679 681 682 683 683 684 684 684 685 685 685 685 685 686 687 689 690 692 695 697 699 702 704 707 709 712 714 716 718 720 722 724 726 728 730 732 734 736 738 739 740 741 742 744 746 747 748
681 680 679 678 677 676 674 675 676 677 678 679 679 679 680 680 680 681 682 682 682 682 683 683 683 683 683 683 683 684 685 686 687 689 692 695 697 700 702 705 707 709 711 713 715 718 720 722 724 726 728 730 732 733 735 736 737 738 739 741 743 744 745
684 683 682 681 680 679 678 678 679 680 681 681 682 682 681 681 682 682 682 682 682 682 682 682 682 683 683 682 682 683 684 686 687 688 691 693 696 699 701 703 706 707 709 711 713 715 717 719 721 723 725 727 729 731 732 733 734 735 736 738 739 740 742
688 686 685 684 683 682 681 681 681 681 682 682 682 681 681 681 681 681 681 680 680 680 681 681 682 682 683 682 682 683 684 686 688 689 690 693 695 698 700 702 704 706 708 710 712 714 716 718 719 721 723 724 726 728 729 730 731 732 734 735 736 738 739
690 688 687 687 686 685 684 683 682 682 682 682 681 680 680 680 680 681 681 680 680 680 680 681 681 682 682 682 682 683 684 686 688 689 690 692 694 696 699 702 704 706 708 710 711 714 715 717 719 720 721 723 725 726 727 728 729 730 731 733 734 735 736
690 689 688 688 687 686 685 684 683 682 682 682 682 681 681 681 681 682 682 681 681 680 680 681 681 682 682 682 683 683 684 686 687 689 691 693 695 696 699 702 704 707 709 710 712 714 716 717 719 720 721 722 723 724 726 727 728 729 730 732 733 734 735
691 689 689 689 688 688 687 687 686 686 686 685 684 683 682 682 683 684 684 683 682 682 681 682 682 682 683 683 683 683 684 686 687 689 691 694 696 698 699 701 704 708 711 712 713 714 716 717 718 719 720 721 723 724 725 726 728 729 730 732 733 734 735